Location: Kalberh�ni
(46.4610°N, 7.2453°E)
Time: 05:09:51
(UTC+00:00)

Cosmos 2333 Rocket - Pass Details

Date: 22 October 2021
Orbit: 837 x 865 km, 70.8° (Epoch: 05 December)

Event Time Altitude Azimuth Distance (km) Brightness Sun altitude
Rises 18:44:45 0° 182° (S) 3,381 5.3 -23.5°
Reaches altitude 10° 18:47:18 10° 175° (S) 2,454 4.5 -24.0°
Enters shadow 18:47:53 13° 172° (S) 2,248 4.2 -24.1°
